Time,TemperatureF,DewpointF,PressureIn,WindDirection,WindDirectionDegrees,WindSpeedMPH,WindSpeedGustMPH,Humidity,HourlyPrecipIn,Conditions,Clouds,dailyrainin,SoftwareType,DateUTC
2013-03-29 00:00:00,38.0,-99.9,-100.00,North,-999,-999.0,-999.0,-999,0.00,,,0.27,,2013-03-29 07:00:00,
2013-03-29 00:32:00,38.0,-99.9,-100.00,North,-999,-999.0,-999.0,-999,0.00,,,0.27,,2013-03-29 07:32:00,
2013-03-29 00:42:00,38.0,-99.9,-100.00,North,-999,-999.0,-999.0,-999,0.00,,,0.27,,2013-03-29 07:42:00,
2013-03-29 00:52:00,38.0,-99.9,-100.00,North,-999,-999.0,-999.0,-999,0.00,,,0.27,,2013-03-29 07:52:00,
2013-03-29 01:00:00,38.0,-99.9,-100.00,North,-999,-999.0,-999.0,-999,0.00,,,0.27,,2013-03-29 08:00:00,
2013-03-29 01:22:00,38.0,-99.9,-100.00,North,-999,-999.0,-999.0,-999,0.00,,,0.27,,2013-03-29 08:22:00,
2013-03-29 01:32:00,38.0,-99.9,-100.00,North,-999,-999.0,-999.0,-999,0.00,,,0.27,,2013-03-29 08:32:00,
2013-03-29 01:42:00,38.0,-99.9,-100.00,North,-999,-999.0,-999.0,-999,0.00,,,0.27,,2013-03-29 08:42:00,
2013-03-29 01:53:00,38.0,-99.9,-100.00,North,-999,-999.0,-999.0,-999,0.00,,,0.27,,2013-03-29 08:53:00,
2013-03-29 02:00:00,38.0,-99.9,-100.00,North,-999,-999.0,-999.0,-999,0.00,,,0.20,,2013-03-29 09:00:00,
2013-03-29 02:22:00,38.0,-99.9,-100.00,North,-999,-999.0,-999.0,-999,0.00,,,0.20,,2013-03-29 09:22:00,
2013-03-29 02:33:00,38.0,-99.9,-100.00,North,-999,-999.0,-999.0,-999,0.00,,,0.20,,2013-03-29 09:33:00,
2013-03-29 02:43:00,38.0,-99.9,-100.00,North,-999,-999.0,-999.0,-999,0.00,,,0.20,,2013-03-29 09:43:00,
2013-03-29 02:53:00,38.0,-99.9,-100.00,North,-999,-999.0,-999.0,-999,0.00,,,0.20,,2013-03-29 09:53:00,
2013-03-29 03:00:00,38.0,-99.9,-100.00,North,-999,-999.0,-999.0,-999,0.00,,,0.18,,2013-03-29 10:00:00,
2013-03-29 03:23:00,38.0,-99.9,-100.00,North,-999,-999.0,-999.0,-999,0.00,,,0.18,,2013-03-29 10:23:00,
2013-03-29 03:33:00,38.0,-99.9,-100.00,North,-999,-999.0,-999.0,-999,0.00,,,0.18,,2013-03-29 10:33:00,
2013-03-29 03:43:00,38.0,-99.9,-100.00,North,-999,-999.0,-999.0,-999,0.00,,,0.18,,2013-03-29 10:43:00,
2013-03-29 03:54:00,38.0,-99.9,-100.00,North,-999,-999.0,-999.0,-999,0.00,,,0.18,,2013-03-29 10:54:00,
2013-03-29 04:00:00,38.0,-99.9,-100.00,North,-999,-999.0,-999.0,-999,0.00,,,0.17,,2013-03-29 11:00:00,
2013-03-29 04:24:00,38.0,-99.9,-100.00,North,-999,-999.0,-999.0,-999,0.00,,,0.17,,2013-03-29 11:24:00,
2013-03-29 04:33:00,38.0,-99.9,-100.00,North,-999,-999.0,-999.0,-999,0.00,,,0.17,,2013-03-29 11:33:00,
2013-03-29 04:43:00,38.0,-99.9,-100.00,North,-999,-999.0,-999.0,-999,0.00,,,0.17,,2013-03-29 11:43:00,
2013-03-29 04:53:00,38.0,-99.9,-100.00,North,-999,-999.0,-999.0,-999,0.00,,,0.17,,2013-03-29 11:53:00,
2013-03-29 05:00:00,39.0,-99.9,-100.00,North,-999,-999.0,-999.0,-999,0.00,,,0.02,,2013-03-29 12:00:00,
2013-03-29 05:23:00,39.0,-99.9,-100.00,North,-999,-999.0,-999.0,-999,0.00,,,0.02,,2013-03-29 12:23:00,
2013-03-29 05:33:00,39.0,-99.9,-100.00,North,-999,-999.0,-999.0,-999,0.00,,,0.02,,2013-03-29 12:33:00,
2013-03-29 05:43:00,39.0,-99.9,-100.00,North,-999,-999.0,-999.0,-999,0.00,,,0.02,,2013-03-29 12:43:00,
2013-03-29 05:53:00,39.0,-99.9,-100.00,North,-999,-999.0,-999.0,-999,0.00,,,0.02,,2013-03-29 12:53:00,
2013-03-29 06:00:00,39.0,-99.9,-100.00,North,-999,-999.0,-999.0,-999,0.00,,,0.01,,2013-03-29 13:00:00,
2013-03-29 06:23:00,39.0,-99.9,-100.00,North,-999,-999.0,-999.0,-999,0.00,,,0.01,,2013-03-29 13:23:00,
2013-03-29 06:33:00,39.0,-99.9,-100.00,North,-999,-999.0,-999.0,-999,0.00,,,0.01,,2013-03-29 13:33:00,
2013-03-29 06:43:00,39.0,-99.9,-100.00,North,-999,-999.0,-999.0,-999,0.00,,,0.01,,2013-03-29 13:43:00,
2013-03-29 06:53:00,39.0,-99.9,-100.00,North,-999,-999.0,-999.0,-999,0.00,,,0.01,,2013-03-29 13:53:00,
2013-03-29 07:00:00,39.0,-99.9,-100.00,North,-999,-999.0,-999.0,-999,0.00,,,0.00,,2013-03-29 14:00:00,
2013-03-29 07:22:00,39.0,-99.9,-100.00,North,-999,-999.0,-999.0,-999,0.00,,,0.00,,2013-03-29 14:22:00,
2013-03-29 07:33:00,39.0,-99.9,-100.00,North,-999,-999.0,-999.0,-999,0.00,,,0.00,,2013-03-29 14:33:00,
2013-03-29 07:43:00,39.0,-99.9,-100.00,North,-999,-999.0,-999.0,-999,0.00,,,0.00,,2013-03-29 14:43:00,
2013-03-29 07:53:00,39.0,-99.9,-100.00,North,-999,-999.0,-999.0,-999,0.00,,,0.00,,2013-03-29 14:53:00,
2013-03-29 08:00:00,40.0,-99.9,-100.00,North,-999,-999.0,-999.0,-999,0.00,,,0.00,,2013-03-29 15:00:00,
2013-03-29 08:23:00,40.0,-99.9,-100.00,North,-999,-999.0,-999.0,-999,0.00,,,0.00,,2013-03-29 15:23:00,
2013-03-29 08:33:00,40.0,-99.9,-100.00,North,-999,-999.0,-999.0,-999,0.00,,,0.00,,2013-03-29 15:33:00,
2013-03-29 08:44:00,40.0,-99.9,-100.00,North,-999,-999.0,-999.0,-999,0.00,,,0.00,,2013-03-29 15:44:00,
2013-03-29 08:53:00,40.0,-99.9,-100.00,North,-999,-999.0,-999.0,-999,0.00,,,0.00,,2013-03-29 15:53:00,
2013-03-29 09:00:00,42.0,-99.9,-100.00,North,-999,-999.0,-999.0,-999,0.00,,,0.00,,2013-03-29 16:00:00,
2013-03-29 09:23:00,42.0,-99.9,-100.00,North,-999,-999.0,-999.0,-999,0.00,,,0.00,,2013-03-29 16:23:00,
2013-03-29 09:33:00,42.0,-99.9,-100.00,North,-999,-999.0,-999.0,-999,0.00,,,0.00,,2013-03-29 16:33:00,
2013-03-29 09:43:00,42.0,-99.9,-100.00,North,-999,-999.0,-999.0,-999,0.00,,,0.00,,2013-03-29 16:43:00,
2013-03-29 09:53:00,42.0,-99.9,-100.00,North,-999,-999.0,-999.0,-999,0.00,,,0.00,,2013-03-29 16:53:00,
2013-03-29 10:00:00,44.0,-99.9,-100.00,North,-999,-999.0,-999.0,-999,0.00,,,0.00,,2013-03-29 17:00:00,
2013-03-29 10:23:00,44.0,-99.9,-100.00,North,-999,-999.0,-999.0,-999,0.00,,,0.00,,2013-03-29 17:23:00,
2013-03-29 10:34:00,44.0,-99.9,-100.00,North,-999,-999.0,-999.0,-999,0.00,,,0.00,,2013-03-29 17:34:00,
2013-03-29 10:44:00,44.0,-99.9,-100.00,North,-999,-999.0,-999.0,-999,0.00,,,0.00,,2013-03-29 17:44:00,
2013-03-29 10:53:00,44.0,-99.9,-100.00,North,-999,-999.0,-999.0,-999,0.00,,,0.00,,2013-03-29 17:53:00,
2013-03-29 11:00:00,49.0,-99.9,-100.00,North,-999,-999.0,-999.0,-999,0.00,,,0.00,,2013-03-29 18:00:00,
2013-03-29 11:23:00,49.0,-99.9,-100.00,North,-999,-999.0,-999.0,-999,0.00,,,0.00,,2013-03-29 18:23:00,
2013-03-29 11:33:00,49.0,-99.9,-100.00,North,-999,-999.0,-999.0,-999,0.00,,,0.00,,2013-03-29 18:33:00,
2013-03-29 11:43:00,49.0,-99.9,-100.00,North,-999,-999.0,-999.0,-999,0.00,,,0.00,,2013-03-29 18:43:00,
2013-03-29 11:53:00,49.0,-99.9,-100.00,North,-999,-999.0,-999.0,-999,0.00,,,0.00,,2013-03-29 18:53:00,
2013-03-29 12:00:00,55.0,-99.9,-100.00,North,-999,-999.0,-999.0,-999,0.00,,,0.00,,2013-03-29 19:00:00,
2013-03-29 12:33:00,55.0,-99.9,-100.00,North,-999,-999.0,-999.0,-999,0.00,,,0.00,,2013-03-29 19:33:00,
2013-03-29 12:43:00,55.0,-99.9,-100.00,North,-999,-999.0,-999.0,-999,0.00,,,0.00,,2013-03-29 19:43:00,
2013-03-29 12:53:00,55.0,-99.9,-100.00,North,-999,-999.0,-999.0,-999,0.00,,,0.00,,2013-03-29 19:53:00,
2013-03-29 13:00:00,57.0,-99.9,-100.00,North,-999,-999.0,-999.0,-999,0.00,,,0.00,,2013-03-29 20:00:00,
2013-03-29 13:23:00,57.0,-99.9,-100.00,North,-999,-999.0,-999.0,-999,0.00,,,0.00,,2013-03-29 20:23:00,
2013-03-29 13:33:00,57.0,-99.9,-100.00,North,-999,-999.0,-999.0,-999,0.00,,,0.00,,2013-03-29 20:33:00,
2013-03-29 13:42:00,57.0,-99.9,-100.00,North,-999,-999.0,-999.0,-999,0.00,,,0.00,,2013-03-29 20:42:00,
2013-03-29 13:52:00,57.0,-99.9,-100.00,North,-999,-999.0,-999.0,-999,0.00,,,0.00,,2013-03-29 20:52:00,
2013-03-29 14:00:00,55.0,-99.9,-100.00,North,-999,-999.0,-999.0,-999,0.00,,,0.00,,2013-03-29 21:00:00,
2013-03-29 14:33:00,55.0,-99.9,-100.00,North,-999,-999.0,-999.0,-999,0.00,,,0.00,,2013-03-29 21:33:00,
2013-03-29 14:43:00,55.0,-99.9,-100.00,North,-999,-999.0,-999.0,-999,0.00,,,0.00,,2013-03-29 21:43:00,
2013-03-29 14:53:00,55.0,-99.9,-100.00,North,-999,-999.0,-999.0,-999,0.00,,,0.00,,2013-03-29 21:53:00,
2013-03-29 15:00:00,56.0,-99.9,-100.00,North,-999,-999.0,-999.0,-999,0.01,,,0.01,,2013-03-29 22:00:00,
2013-03-29 15:23:00,56.0,-99.9,-100.00,North,-999,-999.0,-999.0,-999,0.01,,,0.01,,2013-03-29 22:23:00,
2013-03-29 15:34:00,56.0,-99.9,-100.00,North,-999,-999.0,-999.0,-999,0.01,,,0.01,,2013-03-29 22:34:00,
2013-03-29 15:43:00,56.0,-99.9,-100.00,North,-999,-999.0,-999.0,-999,0.01,,,0.01,,2013-03-29 22:43:00,
2013-03-29 15:54:00,56.0,-99.9,-100.00,North,-999,-999.0,-999.0,-999,0.01,,,0.01,,2013-03-29 22:54:00,
2013-03-29 16:00:00,57.0,-99.9,-100.00,North,-999,-999.0,-999.0,-999,0.00,,,0.01,,2013-03-29 23:00:00,
2013-03-29 16:33:00,57.0,-99.9,-100.00,North,-999,-999.0,-999.0,-999,0.00,,,0.01,,2013-03-29 23:33:00,
2013-03-29 16:43:00,57.0,-99.9,-100.00,North,-999,-999.0,-999.0,-999,0.00,,,0.01,,2013-03-29 23:43:00,
2013-03-29 16:53:00,57.0,-99.9,-100.00,North,-999,-999.0,-999.0,-999,0.00,,,0.01,,2013-03-29 23:53:00,
2013-03-29 17:00:00,58.0,-99.9,-100.00,North,-999,-999.0,-999.0,-999,0.00,,,0.01,,2013-03-30 00:00:00,
2013-03-29 17:23:00,58.0,-99.9,-100.00,North,-999,-999.0,-999.0,-999,0.00,,,0.01,,2013-03-30 00:23:00,
2013-03-29 17:33:00,58.0,-99.9,-100.00,North,-999,-999.0,-999.0,-999,0.00,,,0.01,,2013-03-30 00:33:00,
2013-03-29 17:43:00,58.0,-99.9,-100.00,North,-999,-999.0,-999.0,-999,0.00,,,0.01,,2013-03-30 00:43:00,
2013-03-29 17:53:00,58.0,-99.9,-100.00,North,-999,-999.0,-999.0,-999,0.00,,,0.01,,2013-03-30 00:53:00,
2013-03-29 18:00:00,61.0,-99.9,-100.00,North,-999,-999.0,-999.0,-999,0.00,,,0.01,,2013-03-30 01:00:00,
2013-03-29 18:23:00,61.0,-99.9,-100.00,North,-999,-999.0,-999.0,-999,0.00,,,0.01,,2013-03-30 01:23:00,
2013-03-29 18:34:00,61.0,-99.9,-100.00,North,-999,-999.0,-999.0,-999,0.00,,,0.01,,2013-03-30 01:34:00,
2013-03-29 18:43:00,61.0,-99.9,-100.00,North,-999,-999.0,-999.0,-999,0.00,,,0.01,,2013-03-30 01:43:00,
2013-03-29 18:53:00,61.0,-99.9,-100.00,North,-999,-999.0,-999.0,-999,0.00,,,0.01,,2013-03-30 01:53:00,
2013-03-29 19:00:00,53.0,-99.9,-100.00,North,-999,-999.0,-999.0,-999,0.00,,,0.01,,2013-03-30 02:00:00,
2013-03-29 19:23:00,53.0,-99.9,-100.00,North,-999,-999.0,-999.0,-999,0.00,,,0.01,,2013-03-30 02:23:00,
2013-03-29 19:33:00,53.0,-99.9,-100.00,North,-999,-999.0,-999.0,-999,0.00,,,0.01,,2013-03-30 02:33:00,
2013-03-29 19:43:00,53.0,-99.9,-100.00,North,-999,-999.0,-999.0,-999,0.00,,,0.01,,2013-03-30 02:43:00,
2013-03-29 19:53:00,53.0,-99.9,-100.00,North,-999,-999.0,-999.0,-999,0.00,,,0.01,,2013-03-30 02:53:00,
2013-03-29 20:00:00,48.0,-99.9,-100.00,North,-999,-999.0,-999.0,-999,0.00,,,0.01,,2013-03-30 03:00:00,
2013-03-29 20:23:00,48.0,-99.9,-100.00,North,-999,-999.0,-999.0,-999,0.00,,,0.01,,2013-03-30 03:23:00,
2013-03-29 20:33:00,48.0,-99.9,-100.00,North,-999,-999.0,-999.0,-999,0.00,,,0.01,,2013-03-30 03:33:00,
2013-03-29 20:44:00,48.0,-99.9,-100.00,North,-999,-999.0,-999.0,-999,0.00,,,0.01,,2013-03-30 03:44:00,
2013-03-29 20:53:00,48.0,-99.9,-100.00,North,-999,-999.0,-999.0,-999,0.00,,,0.01,,2013-03-30 03:53:00,
2013-03-29 21:00:00,44.0,-99.9,-100.00,North,-999,-999.0,-999.0,-999,0.00,,,0.01,,2013-03-30 04:00:00,
2013-03-29 21:33:00,44.0,-99.9,-100.00,North,-999,-999.0,-999.0,-999,0.00,,,0.01,,2013-03-30 04:33:00,
2013-03-29 21:43:00,44.0,-99.9,-100.00,North,-999,-999.0,-999.0,-999,0.00,,,0.01,,2013-03-30 04:43:00,
2013-03-29 21:53:00,44.0,-99.9,-100.00,North,-999,-999.0,-999.0,-999,0.00,,,0.01,,2013-03-30 04:53:00,
2013-03-29 22:00:00,42.0,-99.9,-100.00,North,-999,-999.0,-999.0,-999,0.00,,,0.01,,2013-03-30 05:00:00,
2013-03-29 22:22:00,42.0,-99.9,-100.00,North,-999,-999.0,-999.0,-999,0.00,,,0.01,,2013-03-30 05:22:00,
2013-03-29 22:32:00,42.0,-99.9,-100.00,North,-999,-999.0,-999.0,-999,0.00,,,0.01,,2013-03-30 05:32:00,
2013-03-29 22:43:00,42.0,-99.9,-100.00,North,-999,-999.0,-999.0,-999,0.00,,,0.01,,2013-03-30 05:43:00,
2013-03-29 22:52:00,42.0,-99.9,-100.00,North,-999,-999.0,-999.0,-999,0.00,,,0.01,,2013-03-30 05:52:00,
2013-03-29 23:00:00,40.0,-99.9,-100.00,North,-999,-999.0,-999.0,-999,0.00,,,0.01,,2013-03-30 06:00:00,
2013-03-29 23:23:00,40.0,-99.9,-100.00,North,-999,-999.0,-999.0,-999,0.00,,,0.01,,2013-03-30 06:23:00,
2013-03-29 23:32:00,40.0,-99.9,-100.00,North,-999,-999.0,-999.0,-999,0.00,,,0.01,,2013-03-30 06:32:00,
2013-03-29 23:42:00,40.0,-99.9,-100.00,North,-999,-999.0,-999.0,-999,0.00,,,0.01,,2013-03-30 06:42:00,
2013-03-29 23:52:00,40.0,-99.9,-100.00,North,-999,-999.0,-999.0,-999,0.00,,,0.01,,2013-03-30 06:52:00,